Time,TemperatureF,DewpointF,PressureIn,WindDirection,WindDirectionDegrees,WindSpeedMPH,WindSpeedGustMPH,Humidity,HourlyPrecipIn,Conditions,Clouds,dailyrainin,SoftwareType,DateUTC
2013-01-24 00:03:00,14.0,-99.9,-100.00,NNW,329,16.0,21.0,-999,0.00,,,0.00,,2013-01-24 06:03:00,
2013-01-24 00:12:00,14.0,-99.9,-100.00,NNW,329,16.0,21.0,-999,0.00,,,0.00,,2013-01-24 06:12:00,
2013-01-24 00:22:00,14.0,-99.9,-100.00,NNW,329,16.0,21.0,-999,0.00,,,0.00,,2013-01-24 06:22:00,
2013-01-24 00:33:00,14.0,-99.9,-100.00,NW,325,14.0,18.0,-999,0.00,,,0.00,,2013-01-24 06:33:00,
2013-01-24 00:43:00,14.0,-99.9,-100.00,NW,325,14.0,18.0,-999,0.00,,,0.00,,2013-01-24 06:43:00,
2013-01-24 00:53:00,14.0,-99.9,-100.00,NW,325,14.0,18.0,-999,0.00,,,0.00,,2013-01-24 06:53:00,
2013-01-24 01:03:00,13.0,-99.9,-100.00,NNW,328,14.0,18.0,-999,0.00,,,0.00,,2013-01-24 07:03:00,
2013-01-24 01:13:00,13.0,-99.9,-100.00,NNW,328,14.0,18.0,-999,0.00,,,0.00,,2013-01-24 07:13:00,
2013-01-24 01:23:00,13.0,-99.9,-100.00,NNW,328,14.0,18.0,-999,0.00,,,0.00,,2013-01-24 07:23:00,
2013-01-24 01:34:00,13.0,-99.9,-100.00,NNW,335,14.0,18.0,-999,0.00,,,0.00,,2013-01-24 07:34:00,
2013-01-24 01:43:00,13.0,-99.9,-100.00,NNW,335,14.0,18.0,-999,0.00,,,0.00,,2013-01-24 07:43:00,
2013-01-24 01:53:00,13.0,-99.9,-100.00,NNW,335,14.0,18.0,-999,0.00,,,0.00,,2013-01-24 07:53:00,
2013-01-24 02:03:00,12.0,-99.9,-100.00,NNW,345,16.0,21.0,-999,0.00,,,0.00,,2013-01-24 08:03:00,
2013-01-24 02:13:00,12.0,-99.9,-100.00,NNW,345,16.0,21.0,-999,0.00,,,0.00,,2013-01-24 08:13:00,
2013-01-24 02:23:00,12.0,-99.9,-100.00,NNW,345,16.0,21.0,-999,0.00,,,0.00,,2013-01-24 08:23:00,
2013-01-24 02:33:00,12.0,-99.9,-100.00,NNW,340,17.0,19.0,-999,0.00,,,0.00,,2013-01-24 08:33:00,
2013-01-24 02:43:00,12.0,-99.9,-100.00,NNW,340,17.0,19.0,-999,0.00,,,0.00,,2013-01-24 08:43:00,
2013-01-24 02:53:00,12.0,-99.9,-100.00,NNW,340,17.0,19.0,-999,0.00,,,0.00,,2013-01-24 08:53:00,
2013-01-24 03:03:00,11.0,-99.9,-100.00,NNW,341,15.0,16.0,-999,0.00,,,0.00,,2013-01-24 09:03:00,
2013-01-24 03:13:00,11.0,-99.9,-100.00,NNW,341,15.0,16.0,-999,0.00,,,0.00,,2013-01-24 09:13:00,
2013-01-24 03:23:00,11.0,-99.9,-100.00,NNW,341,15.0,16.0,-999,0.00,,,0.00,,2013-01-24 09:23:00,
2013-01-24 03:34:00,11.0,-99.9,-100.00,NNW,343,12.0,14.0,-999,0.00,,,0.00,,2013-01-24 09:34:00,
2013-01-24 03:43:00,11.0,-99.9,-100.00,NNW,343,12.0,14.0,-999,0.00,,,0.00,,2013-01-24 09:43:00,
2013-01-24 03:53:00,11.0,-99.9,-100.00,NNW,343,12.0,14.0,-999,0.00,,,0.00,,2013-01-24 09:53:00,
2013-01-24 04:03:00,11.0,-99.9,-100.00,NNW,344,14.0,19.0,-999,0.00,,,0.00,,2013-01-24 10:03:00,
2013-01-24 04:13:00,11.0,-99.9,-100.00,NNW,344,14.0,19.0,-999,0.00,,,0.00,,2013-01-24 10:13:00,
2013-01-24 04:23:00,11.0,-99.9,-100.00,NNW,344,14.0,19.0,-999,0.00,,,0.00,,2013-01-24 10:23:00,
2013-01-24 04:34:00,10.0,-99.9,-100.00,North,-999,12.0,17.0,-999,0.00,,,0.00,,2013-01-24 10:34:00,
2013-01-24 04:44:00,10.0,-99.9,-100.00,North,-999,12.0,17.0,-999,0.00,,,0.00,,2013-01-24 10:44:00,
2013-01-24 04:53:00,10.0,-99.9,-100.00,North,-999,12.0,17.0,-999,0.00,,,0.00,,2013-01-24 10:53:00,
2013-01-24 05:03:00,10.0,-99.9,-100.00,North,1,15.0,17.0,-999,0.00,,,0.00,,2013-01-24 11:03:00,
2013-01-24 05:13:00,10.0,-99.9,-100.00,North,1,15.0,17.0,-999,0.00,,,0.00,,2013-01-24 11:13:00,
2013-01-24 05:23:00,10.0,-99.9,-100.00,North,1,15.0,17.0,-999,0.00,,,0.00,,2013-01-24 11:23:00,
2013-01-24 05:34:00,9.0,-99.9,-100.00,North,1,14.0,16.0,-999,0.00,,,0.00,,2013-01-24 11:34:00,
2013-01-24 05:43:00,9.0,-99.9,-100.00,North,1,14.0,16.0,-999,0.00,,,0.00,,2013-01-24 11:43:00,
2013-01-24 05:53:00,9.0,-99.9,-100.00,North,1,14.0,16.0,-999,0.00,,,0.00,,2013-01-24 11:53:00,
2013-01-24 06:03:00,9.0,-99.9,-100.00,North,2,13.0,18.0,-999,0.00,,,-99.99,,2013-01-24 12:03:00,
2013-01-24 06:12:00,9.0,-99.9,-100.00,North,2,13.0,18.0,-999,0.00,,,-99.99,,2013-01-24 12:12:00,
2013-01-24 06:23:00,9.0,-99.9,-100.00,North,2,13.0,18.0,-999,0.00,,,-99.99,,2013-01-24 12:23:00,
2013-01-24 06:30:00,9.0,-99.9,-100.00,North,8,13.0,15.0,-999,0.00,,,0.00,,2013-01-24 12:30:00,
2013-01-24 06:33:00,9.0,-99.9,-100.00,North,11,15.0,19.0,-999,0.00,,,0.00,,2013-01-24 12:33:00,
2013-01-24 06:43:00,9.0,-99.9,-100.00,North,11,15.0,19.0,-999,0.00,,,0.00,,2013-01-24 12:43:00,
2013-01-24 06:53:00,9.0,-99.9,-100.00,North,11,15.0,19.0,-999,0.00,,,0.00,,2013-01-24 12:53:00,
2013-01-24 07:03:00,9.0,-99.9,-100.00,North,8,13.0,15.0,-999,0.00,,,0.00,,2013-01-24 13:03:00,
2013-01-24 07:13:00,9.0,-99.9,-100.00,North,8,13.0,15.0,-999,0.00,,,0.00,,2013-01-24 13:13:00,
2013-01-24 07:23:00,9.0,-99.9,-100.00,North,8,13.0,15.0,-999,0.00,,,0.00,,2013-01-24 13:23:00,
2013-01-24 08:03:00,8.0,-99.9,-100.00,NNE,19,11.0,13.0,-999,0.00,,,0.00,,2013-01-24 14:03:00,
2013-01-24 08:13:00,8.0,-99.9,-100.00,NNE,19,11.0,13.0,-999,0.00,,,0.00,,2013-01-24 14:13:00,
2013-01-24 08:23:00,8.0,-99.9,-100.00,NNE,19,11.0,13.0,-999,0.00,,,0.00,,2013-01-24 14:23:00,
2013-01-24 08:33:00,8.0,-99.9,-100.00,NNE,16,12.0,14.0,-999,0.00,,,0.00,,2013-01-24 14:33:00,
2013-01-24 08:44:00,8.0,-99.9,-100.00,NNE,16,12.0,14.0,-999,0.00,,,0.00,,2013-01-24 14:44:00,
2013-01-24 08:54:00,8.0,-99.9,-100.00,NNE,16,12.0,14.0,-999,0.00,,,0.00,,2013-01-24 14:54:00,
2013-01-24 09:04:00,8.0,-99.9,-100.00,NNE,24,15.0,19.0,-999,0.00,,,0.00,,2013-01-24 15:04:00,
2013-01-24 09:13:00,8.0,-99.9,-100.00,NNE,24,15.0,19.0,-999,0.00,,,0.00,,2013-01-24 15:13:00,
2013-01-24 09:23:00,8.0,-99.9,-100.00,NNE,24,15.0,19.0,-999,0.00,,,0.00,,2013-01-24 15:23:00,
2013-01-24 09:33:00,9.0,-99.9,-100.00,NNE,30,11.0,15.0,-999,0.00,,,0.00,,2013-01-24 15:33:00,
2013-01-24 09:43:00,9.0,-99.9,-100.00,NNE,30,11.0,15.0,-999,0.00,,,0.00,,2013-01-24 15:43:00,
2013-01-24 09:53:00,9.0,-99.9,-100.00,NNE,30,11.0,15.0,-999,0.00,,,0.00,,2013-01-24 15:53:00,
2013-01-24 10:04:00,9.0,-99.9,-100.00,NNE,25,9.0,13.0,-999,0.00,,,0.00,,2013-01-24 16:04:00,
2013-01-24 10:12:00,9.0,-99.9,-100.00,NNE,25,9.0,13.0,-999,0.00,,,0.00,,2013-01-24 16:12:00,
2013-01-24 10:23:00,9.0,-99.9,-100.00,NNE,25,9.0,13.0,-999,0.00,,,0.00,,2013-01-24 16:23:00,
2013-01-24 10:34:00,11.0,-99.9,-100.00,NE,49,4.0,9.0,-999,0.00,,,0.00,,2013-01-24 16:34:00,
2013-01-24 10:43:00,11.0,-99.9,-100.00,NE,49,4.0,9.0,-999,0.00,,,0.00,,2013-01-24 16:43:00,
2013-01-24 11:03:00,12.0,-99.9,-100.00,NNE,26,5.0,10.0,-999,0.00,,,0.00,,2013-01-24 17:03:00,
2013-01-24 11:12:00,12.0,-99.9,-100.00,NNE,26,5.0,10.0,-999,0.00,,,0.00,,2013-01-24 17:12:00,
2013-01-24 11:22:00,12.0,-99.9,-100.00,NNE,26,5.0,10.0,-999,0.00,,,0.00,,2013-01-24 17:22:00,
2013-01-24 11:30:00,15.0,-99.9,-100.00,ESE,118,1.0,2.0,-999,0.00,,,0.00,,2013-01-24 17:30:00,
2013-01-24 11:33:00,14.0,-99.9,-100.00,NE,44,2.0,7.0,-999,0.00,,,0.00,,2013-01-24 17:33:00,
2013-01-24 11:43:00,14.0,-99.9,-100.00,NE,44,2.0,7.0,-999,0.00,,,0.00,,2013-01-24 17:43:00,
2013-01-24 11:53:00,14.0,-99.9,-100.00,NE,44,2.0,7.0,-999,0.00,,,0.00,,2013-01-24 17:53:00,
2013-01-24 12:03:00,15.0,-99.9,-100.00,ESE,118,1.0,2.0,-999,0.00,,,0.00,,2013-01-24 18:03:00,
2013-01-24 12:13:00,15.0,-99.9,-100.00,ESE,118,1.0,2.0,-999,0.00,,,0.00,,2013-01-24 18:13:00,
2013-01-24 12:23:00,15.0,-99.9,-100.00,ESE,118,1.0,2.0,-999,0.00,,,0.00,,2013-01-24 18:23:00,
2013-01-24 13:00:00,18.0,-99.9,-100.00,East,99,2.0,6.0,-999,0.00,,,0.00,,2013-01-24 19:00:00,
2013-01-24 13:03:00,17.0,-99.9,-100.00,SSE,148,2.0,5.0,-999,0.00,,,0.00,,2013-01-24 19:03:00,
2013-01-24 13:13:00,17.0,-99.9,-100.00,SSE,148,2.0,5.0,-999,0.00,,,0.00,,2013-01-24 19:13:00,
2013-01-24 13:22:00,17.0,-99.9,-100.00,SSE,148,2.0,5.0,-999,0.00,,,0.00,,2013-01-24 19:22:00,
2013-01-24 13:33:00,18.0,-99.9,-100.00,East,99,2.0,6.0,-999,0.00,,,0.00,,2013-01-24 19:33:00,
2013-01-24 13:42:00,18.0,-99.9,-100.00,East,99,2.0,6.0,-999,0.00,,,0.00,,2013-01-24 19:42:00,
2013-01-24 13:53:00,18.0,-99.9,-100.00,East,99,2.0,6.0,-999,0.00,,,0.00,,2013-01-24 19:53:00,
2013-01-24 14:00:00,21.0,-99.9,-100.00,ENE,75,3.0,6.0,-999,0.00,,,0.00,,2013-01-24 20:00:00,
2013-01-24 14:33:00,21.0,-99.9,-100.00,ENE,75,3.0,6.0,-999,0.00,,,0.00,,2013-01-24 20:33:00,
2013-01-24 14:43:00,21.0,-99.9,-100.00,ENE,75,3.0,6.0,-999,0.00,,,0.00,,2013-01-24 20:43:00,
2013-01-24 14:53:00,21.0,-99.9,-100.00,ENE,75,3.0,6.0,-999,0.00,,,0.00,,2013-01-24 20:53:00,
2013-01-24 15:33:00,22.0,-99.9,-100.00,ESE,102,3.0,8.0,-999,0.00,,,0.00,,2013-01-24 21:33:00,
2013-01-24 15:44:00,22.0,-99.9,-100.00,ESE,102,3.0,8.0,-999,0.00,,,0.00,,2013-01-24 21:44:00,
2013-01-24 15:53:00,22.0,-99.9,-100.00,ESE,102,3.0,8.0,-999,0.00,,,0.00,,2013-01-24 21:53:00,
2013-01-24 16:03:00,22.0,-99.9,-100.00,ESE,107,2.0,6.0,-999,0.00,,,0.00,,2013-01-24 22:03:00,
2013-01-24 16:12:00,22.0,-99.9,-100.00,ESE,107,2.0,6.0,-999,0.00,,,0.00,,2013-01-24 22:12:00,
2013-01-24 16:23:00,22.0,-99.9,-100.00,ESE,107,2.0,6.0,-999,0.00,,,0.00,,2013-01-24 22:23:00,
2013-01-24 16:33:00,22.0,-99.9,-100.00,ESE,122,2.0,7.0,-999,0.00,,,0.00,,2013-01-24 22:33:00,
2013-01-24 16:43:00,22.0,-99.9,-100.00,ESE,122,2.0,7.0,-999,0.00,,,0.00,,2013-01-24 22:43:00,
2013-01-24 16:53:00,22.0,-99.9,-100.00,ESE,122,2.0,7.0,-999,0.00,,,0.00,,2013-01-24 22:53:00,
2013-01-24 17:03:00,22.0,-99.9,-100.00,ESE,103,3.0,9.0,-999,0.00,,,0.00,,2013-01-24 23:03:00,
2013-01-24 17:13:00,22.0,-99.9,-100.00,ESE,103,3.0,9.0,-999,0.00,,,0.00,,2013-01-24 23:13:00,
2013-01-24 17:22:00,22.0,-99.9,-100.00,ESE,103,3.0,9.0,-999,0.00,,,0.00,,2013-01-24 23:22:00,
2013-01-24 17:33:00,22.0,-99.9,-100.00,ESE,115,3.0,7.0,-999,0.00,,,0.00,,2013-01-24 23:33:00,
2013-01-24 17:43:00,22.0,-99.9,-100.00,ESE,115,3.0,7.0,-999,0.00,,,0.00,,2013-01-24 23:43:00,
2013-01-24 17:53:00,22.0,-99.9,-100.00,ESE,115,3.0,7.0,-999,0.00,,,0.00,,2013-01-24 23:53:00,
2013-01-24 18:03:00,22.0,-99.9,-100.00,SE,129,1.0,2.0,-999,0.00,,,0.00,,2013-01-25 00:03:00,
2013-01-24 18:12:00,22.0,-99.9,-100.00,SE,129,1.0,2.0,-999,0.00,,,0.00,,2013-01-25 00:12:00,
2013-01-24 18:22:00,22.0,-99.9,-100.00,SE,129,1.0,2.0,-999,0.00,,,0.00,,2013-01-25 00:22:00,
2013-01-24 18:32:00,21.0,-99.9,-100.00,East,100,0.0,2.0,-999,0.00,,,0.00,,2013-01-25 00:32:00,
2013-01-24 18:42:00,21.0,-99.9,-100.00,East,100,0.0,2.0,-999,0.00,,,0.00,,2013-01-25 00:42:00,
2013-01-24 18:53:00,21.0,-99.9,-100.00,East,100,0.0,2.0,-999,0.00,,,0.00,,2013-01-25 00:53:00,
2013-01-24 19:00:00,21.0,-99.9,-100.00,East,97,1.0,3.0,-999,0.00,,,0.00,,2013-01-25 01:00:00,
2013-01-24 19:02:00,21.0,-99.9,-100.00,East,93,1.0,4.0,-999,0.00,,,0.00,,2013-01-25 01:02:00,
2013-01-24 19:13:00,21.0,-99.9,-100.00,East,93,1.0,4.0,-999,0.00,,,0.00,,2013-01-25 01:13:00,
2013-01-24 19:22:00,21.0,-99.9,-100.00,East,93,1.0,4.0,-999,0.00,,,0.00,,2013-01-25 01:22:00,
2013-01-24 19:33:00,21.0,-99.9,-100.00,East,97,1.0,3.0,-999,0.00,,,0.00,,2013-01-25 01:33:00,
2013-01-24 19:43:00,21.0,-99.9,-100.00,East,97,1.0,3.0,-999,0.00,,,0.00,,2013-01-25 01:43:00,
2013-01-24 19:52:00,21.0,-99.9,-100.00,East,97,1.0,3.0,-999,0.00,,,0.00,,2013-01-25 01:52:00,
2013-01-24 20:43:00,22.0,-99.9,-100.00,ESE,111,2.0,4.0,-999,0.00,,,0.00,,2013-01-25 02:43:00,
2013-01-24 20:53:00,22.0,-99.9,-100.00,ESE,111,2.0,4.0,-999,0.00,,,0.00,,2013-01-25 02:53:00,
2013-01-24 21:02:00,22.0,-99.9,-100.00,ESE,106,1.0,4.0,-999,0.00,,,0.00,,2013-01-25 03:02:00,
2013-01-24 21:12:00,22.0,-99.9,-100.00,ESE,106,1.0,4.0,-999,0.00,,,0.00,,2013-01-25 03:12:00,
2013-01-24 21:22:00,22.0,-99.9,-100.00,ESE,106,1.0,4.0,-999,0.00,,,0.00,,2013-01-25 03:22:00,
2013-01-24 21:33:00,22.0,-99.9,-100.00,East,85,1.0,6.0,-999,0.00,,,0.00,,2013-01-25 03:33:00,
2013-01-24 21:42:00,22.0,-99.9,-100.00,East,85,1.0,6.0,-999,0.00,,,0.00,,2013-01-25 03:42:00,
2013-01-24 21:53:00,22.0,-99.9,-100.00,East,85,1.0,6.0,-999,0.00,,,0.00,,2013-01-25 03:53:00,
2013-01-24 22:02:00,23.0,-99.9,-100.00,SE,131,1.0,4.0,-999,0.00,,,0.00,,2013-01-25 04:02:00,
2013-01-24 22:12:00,23.0,-99.9,-100.00,SE,131,1.0,4.0,-999,0.00,,,0.00,,2013-01-25 04:12:00,
2013-01-24 22:23:00,23.0,-99.9,-100.00,SE,131,1.0,4.0,-999,0.00,,,0.00,,2013-01-25 04:23:00,
2013-01-24 22:32:00,23.0,-99.9,-100.00,ESE,122,1.0,3.0,-999,0.00,,,0.00,,2013-01-25 04:32:00,
2013-01-24 22:42:00,23.0,-99.9,-100.00,ESE,122,1.0,3.0,-999,0.00,,,0.00,,2013-01-25 04:42:00,
2013-01-24 22:52:00,23.0,-99.9,-100.00,ESE,122,1.0,3.0,-999,0.00,,,0.00,,2013-01-25 04:52:00,
2013-01-24 23:00:00,23.0,-99.9,-100.00,ESE,121,1.0,3.0,-999,0.00,,,0.00,,2013-01-25 05:00:00,
2013-01-24 23:04:00,22.0,-99.9,-100.00,ESE,120,1.0,4.0,-999,0.00,,,0.00,,2013-01-25 05:04:00,
2013-01-24 23:12:00,22.0,-99.9,-100.00,ESE,120,1.0,4.0,-999,0.00,,,0.00,,2013-01-25 05:12:00,
2013-01-24 23:22:00,22.0,-99.9,-100.00,ESE,120,1.0,4.0,-999,0.00,,,0.00,,2013-01-25 05:22:00,
2013-01-24 23:32:00,23.0,-99.9,-100.00,ESE,121,1.0,3.0,-999,0.00,,,0.00,,2013-01-25 05:32:00,
2013-01-24 23:43:00,23.0,-99.9,-100.00,ESE,121,1.0,3.0,-999,0.00,,,0.00,,2013-01-25 05:43:00,
2013-01-24 23:52:00,23.0,-99.9,-100.00,ESE,121,1.0,3.0,-999,0.00,,,0.00,,2013-01-25 05:52:00,